Time,TemperatureF,DewpointF,PressureIn,WindDirection,WindDirectionDegrees,WindSpeedMPH,WindSpeedGustMPH,Humidity,HourlyPrecipIn,Conditions,Clouds,dailyrainin,SoftwareType,DateUTC
2013-06-03 00:00:00,43.0,24.0,-100.00,North,-999,-999.0,-999.0,47,-99.99,,,-99.99,,2013-06-03 06:00:00,
2013-06-03 00:52:00,43.0,24.0,-100.00,North,-999,-999.0,-999.0,47,-99.99,,,-99.99,,2013-06-03 06:52:00,
2013-06-03 01:00:00,42.0,-99.9,-100.00,North,-999,-999.0,-999.0,-999,-99.99,,,-99.99,,2013-06-03 07:00:00,
2013-06-03 01:52:00,42.0,-99.9,-100.00,North,-999,-999.0,-999.0,-999,-99.99,,,-99.99,,2013-06-03 07:52:00,
2013-06-03 02:00:00,43.0,24.0,-100.00,North,-999,-999.0,-999.0,47,-99.99,,,-99.99,,2013-06-03 08:00:00,
2013-06-03 02:52:00,43.0,24.0,-100.00,North,-999,-999.0,-999.0,47,-99.99,,,-99.99,,2013-06-03 08:52:00,
2013-06-03 03:00:00,42.0,23.0,-100.00,North,-999,-999.0,-999.0,47,-99.99,,,-99.99,,2013-06-03 09:00:00,
2013-06-03 03:53:00,42.0,23.0,-100.00,North,-999,-999.0,-999.0,47,-99.99,,,-99.99,,2013-06-03 09:53:00,
2013-06-03 04:00:00,44.0,25.0,-100.00,North,-999,-999.0,-999.0,47,-99.99,,,-99.99,,2013-06-03 10:00:00,
2013-06-03 04:52:00,44.0,25.0,-100.00,North,-999,-999.0,-999.0,47,-99.99,,,-99.99,,2013-06-03 10:52:00,
2013-06-03 05:00:00,44.0,25.0,-100.00,North,-999,-999.0,-999.0,47,-99.99,,,0.00,,2013-06-03 11:00:00,
2013-06-03 05:52:00,44.0,25.0,-100.00,North,-999,-999.0,-999.0,47,-99.99,,,0.00,,2013-06-03 11:52:00,
2013-06-03 06:00:00,42.0,23.0,-100.00,North,-999,-999.0,-999.0,47,-99.99,,,0.00,,2013-06-03 12:00:00,
2013-06-03 06:52:00,42.0,23.0,-100.00,North,-999,-999.0,-999.0,47,-99.99,,,0.00,,2013-06-03 12:52:00,
2013-06-03 07:00:00,45.0,26.0,-100.00,North,-999,-999.0,-999.0,47,-99.99,,,0.00,,2013-06-03 13:00:00,
2013-06-03 07:53:00,45.0,26.0,-100.00,North,-999,-999.0,-999.0,47,-99.99,,,0.00,,2013-06-03 13:53:00,
2013-06-03 08:00:00,49.0,29.0,-100.00,North,-999,-999.0,-999.0,47,-99.99,,,0.00,,2013-06-03 14:00:00,
2013-06-03 08:42:00,49.0,29.0,-100.00,North,-999,-999.0,-999.0,47,-99.99,,,0.00,,2013-06-03 14:42:00,
2013-06-03 08:52:00,49.0,29.0,-100.00,North,-999,-999.0,-999.0,47,-99.99,,,0.00,,2013-06-03 14:52:00,
2013-06-03 09:00:00,53.0,33.0,-100.00,North,-999,-999.0,-999.0,47,-99.99,,,-99.99,,2013-06-03 15:00:00,
2013-06-03 09:53:00,53.0,33.0,-100.00,North,-999,-999.0,-999.0,47,-99.99,,,-99.99,,2013-06-03 15:53:00,
2013-06-03 10:00:00,56.0,36.0,-100.00,North,-999,-999.0,-999.0,47,-99.99,,,-99.99,,2013-06-03 16:00:00,
2013-06-03 10:53:00,56.0,36.0,-100.00,North,-999,-999.0,-999.0,47,-99.99,,,-99.99,,2013-06-03 16:53:00,
2013-06-03 11:00:00,58.0,38.0,-100.00,North,-999,-999.0,-999.0,47,-99.99,,,-99.99,,2013-06-03 17:00:00,
2013-06-03 11:52:00,58.0,38.0,-100.00,North,-999,-999.0,-999.0,47,-99.99,,,-99.99,,2013-06-03 17:52:00,
2013-06-03 12:00:00,60.0,40.0,-100.00,North,-999,-999.0,-999.0,47,-99.99,,,-99.99,,2013-06-03 18:00:00,
2013-06-03 12:53:00,60.0,40.0,-100.00,North,-999,-999.0,-999.0,47,-99.99,,,-99.99,,2013-06-03 18:53:00,
2013-06-03 13:00:00,60.0,40.0,-100.00,North,-999,-999.0,-999.0,47,-99.99,,,-99.99,,2013-06-03 19:00:00,
2013-06-03 13:53:00,60.0,40.0,-100.00,North,-999,-999.0,-999.0,47,-99.99,,,-99.99,,2013-06-03 19:53:00,
2013-06-03 14:00:00,61.0,41.0,-100.00,North,-999,-999.0,-999.0,47,-99.99,,,-99.99,,2013-06-03 20:00:00,
2013-06-03 14:52:00,61.0,41.0,-100.00,North,-999,-999.0,-999.0,47,-99.99,,,-99.99,,2013-06-03 20:52:00,
2013-06-03 15:00:00,62.0,41.0,-100.00,North,-999,-999.0,-999.0,47,-99.99,,,0.00,,2013-06-03 21:00:00,
2013-06-03 15:53:00,62.0,41.0,-100.00,North,-999,-999.0,-999.0,47,-99.99,,,0.00,,2013-06-03 21:53:00,
2013-06-03 16:00:00,59.0,39.0,-100.00,North,-999,-999.0,-999.0,47,-99.99,,,0.00,,2013-06-03 22:00:00,
2013-06-03 16:53:00,59.0,39.0,-100.00,North,-999,-999.0,-999.0,47,-99.99,,,0.00,,2013-06-03 22:53:00,
2013-06-03 17:00:00,57.0,37.0,-100.00,North,-999,-999.0,-999.0,47,-99.99,,,0.00,,2013-06-03 23:00:00,
2013-06-03 17:52:00,57.0,37.0,-100.00,North,-999,-999.0,-999.0,47,-99.99,,,0.00,,2013-06-03 23:52:00,
2013-06-03 18:00:00,57.0,37.0,-100.00,North,-999,-999.0,-999.0,47,-99.99,,,0.00,,2013-06-04 00:00:00,
2013-06-03 18:52:00,57.0,37.0,-100.00,North,-999,-999.0,-999.0,47,-99.99,,,0.00,,2013-06-04 00:52:00,
2013-06-03 19:00:00,53.0,33.0,-100.00,North,-999,-999.0,-999.0,47,-99.99,,,0.00,,2013-06-04 01:00:00,
2013-06-03 19:42:00,53.0,33.0,-100.00,North,-999,-999.0,-999.0,47,-99.99,,,0.00,,2013-06-04 01:42:00,
2013-06-03 19:53:00,53.0,33.0,-100.00,North,-999,-999.0,-999.0,47,-99.99,,,0.00,,2013-06-04 01:53:00,
2013-06-03 20:00:00,50.0,30.0,-100.00,North,-999,-999.0,-999.0,47,-99.99,,,0.00,,2013-06-04 02:00:00,
2013-06-03 20:52:00,50.0,30.0,-100.00,North,-999,-999.0,-999.0,47,-99.99,,,0.00,,2013-06-04 02:52:00,
2013-06-03 21:00:00,46.0,27.0,-100.00,North,-999,-999.0,-999.0,47,-99.99,,,0.00,,2013-06-04 03:00:00,
2013-06-03 21:54:00,46.0,27.0,-100.00,North,-999,-999.0,-999.0,47,-99.99,,,0.00,,2013-06-04 03:54:00,
2013-06-03 22:00:00,44.0,25.0,-100.00,North,-999,-999.0,-999.0,47,-99.99,,,0.00,,2013-06-04 04:00:00,
2013-06-03 22:53:00,44.0,25.0,-100.00,North,-999,-999.0,-999.0,47,-99.99,,,0.00,,2013-06-04 04:53:00,
2013-06-03 23:00:00,40.0,22.0,-100.00,North,-999,-999.0,-999.0,47,-99.99,,,0.00,,2013-06-04 05:00:00,
2013-06-03 23:52:00,40.0,22.0,-100.00,North,-999,-999.0,-999.0,47,-99.99,,,0.00,,2013-06-04 05:52:00,